Location: Gloden
(48.4833°N, 15.3167°E)
Time: 13:49:34
(UTC+00:00)

Cosmos 1733 Rocket - Pass Details

Date: 15 December 2019
Orbit: 604 x 627 km, 82.5° (Epoch: 27 January)

Event Time Altitude Azimuth Distance (km) Brightness Sun altitude
Rises 04:09:15 0° 171° (S) 2,846 6.7 -24.4°
Reaches altitude 10° 04:11:30 10° 165° (SSE) 1,948 5.9 -24.0°
Maximum altitude 04:15:37 45° 93° (E) 835 4.1 -23.3°
Drops below altitude 10° 04:19:45 10° 21° (NNE) 1,970 5.8 -22.7°
Sets 04:22:03 0° 15° (NNE) 2,882 6.6 -22.3°
